Overview Statistics Trail Chart Weather Telemetry Raw packets
 

This is the latest recevied weather packets stored in our database for station/object KC2GYU. If no packets are shown the sender has not sent any weather packets the latest 10 day(s).

<< 21 22 23 24 25 26 27 >>
Time Temp. Humidity Pressure Rain* Wind** Luminosity Snow
1777969682 12.78° C 96% 1012.4 hPa 0 mm - 0 W/m² -
1777969379 12.78° C 96% 1012.4 hPa 0 mm - 0 W/m² -
1777969075 12.78° C 96% 1012.3 hPa 0 mm - 0 W/m² -
1777968772 12.78° C 96% 1012.5 hPa 0 mm - 0 W/m² -
1777968469 13.33° C 96% 1012.5 hPa 0 mm - 0 W/m² -
1777968164 13.33° C 95% 1012.5 hPa 0 mm - 0 W/m² -
1777967860 13.33° C 95% 1012.3 hPa 0 mm - 0 W/m² -
1777967558 13.33° C 95% 1012.4 hPa 0 mm - 0 W/m² -
1777967255 13.33° C 95% 1012.4 hPa 0 mm - 0 W/m² -
1777966952 13.89° C 95% 1012.6 hPa 0 mm - 0 W/m² -
1777966649 13.89° C 95% 1012.4 hPa 0 mm - 0 W/m² -
1777966347 13.89° C 95% 1012.2 hPa 0 mm - 0 W/m² -
1777966043 13.89° C 95% 1012.3 hPa 0 mm - 0 W/m² -
1777965740 13.89° C 95% 1012.3 hPa 0 mm - 0 W/m² -
1777965435 13.89° C 96% 1012.2 hPa 0 mm - 0 W/m² -
1777965133 13.33° C 96% 1012.2 hPa 0 mm - 0 W/m² -
1777964830 13.33° C 96% 1012 hPa 0 mm - 0 W/m² -
1777964526 13.33° C 96% 1012.2 hPa 0 mm - 0 W/m² -
1777964222 13.33° C 97% 1012.2 hPa 0 mm - 0 W/m² -
1777963919 12.78° C 97% 1012 hPa 0 mm - 0 W/m² -
1777963616 12.78° C 97% 1012.2 hPa 0 mm - 0 W/m² -
1777963314 12.78° C 97% 1012.1 hPa 0 mm - 0 W/m² -
1777963011 12.78° C 97% 1012.1 hPa 0 mm - 0 W/m² -
1777962707 12.78° C 98% 1011.9 hPa 0 mm - 0 W/m² -
1777962403 12.22° C 97% 1012.2 hPa 0 mm - 0 W/m² -

* Rain latest hour (hover to see other rain measurements)
** Current wind speed in m/s (hover to see current wind gust speed)